Location: Bremen
(53.0830°N, 8.8000°E)
Time: 19:56:20
(UTC+01:00)

ISS - Pass Details

Date: 07 November 2020
Orbit: 418 x 420 km, 51.6° (Epoch: 06 December)

Event Time Altitude Azimuth Distance (km) Brightness Sun altitude
Exits shadow 06:45:01 - 257° (WSW) 1,716 -1.2 -7.7°
Reaches altitude 10° 06:46:05 10° 242° (WSW) 1,505 -1.4 -7.6°
Maximum altitude 06:47:18 12° 221° (SW) 1,410 -1.3 -7.4°
Drops below altitude 10° 06:48:31 10° 199° (SSW) 1,502 -0.9 -7.2°
Sets 06:51:46 0° 165° (SSE) 2,362 0.6 -6.8°
